Location: Marcé
(47.5801°N, 0.3280°W)
Time: 09:36:51
(UTC+01:00)

Tiros 1 despin weight - Pass Details

Date: 10 December 2021
Orbit: 592 x 641 km, 48.2° (Epoch: 25 January)

Event Time Altitude Azimuth Distance (km) Brightness Sun altitude
Rises 16:17:08 0° 284° (WNW) 2,834 ? 6.0°
Reaches altitude 10° 16:19:26 10° 281° (W) 1,927 ? 5.8°
Maximum altitude 16:23:47 60° 202° (SSW) 681 ? 5.2°
Drops below altitude 10° 16:28:06 10° 123° (ESE) 1,918 ? 4.7°
Sets 16:30:24 0° 120° (ESE) 2,820 ? 4.4°
